Flag for Germany Weather past 2 weeks in Zerbst/Anhalt, Saxony-Anhalt, Germany

Now
43 °F

Overcast.


Feels Like: 42 °F
Forecast: 36 / 46 °F
Wind: 3 mph from Northwest

Location: Magdeburg

Current Time: Mar 5, 2015 at 1:14:48 PM

Latest Report: Mar 5, 2015 at 12:00 PM


Visibility: 22 mi

Pressure: 30.53 "Hg

Humidity: 75%

Dew point: 36 °F

Location of Zerbst/AnhaltLocation

Historic Weather in Zerbst/Anhalt — Graph

°F

Zerbst/Anhalt temperature yesterday

Maximum temperature yesterday: 43 °F (at 4:00 PM)
Minimum temperature yesterday: 35 °F (at 7:00 AM)
Average temperature yesterday: 39 °F

Past Weeks' High & Low Weather Summary

 TemperatureHumidityPressure
High49 °F (Feb 20, 4:00 PM)97% (Feb 23, 11:00 AM)30.74 "Hg (Feb 23, 11:00 AM)
Low26 °F (Feb 19, 7:00 AM)49% (Feb 26, 5:00 PM)29.38 "Hg (Feb 21, 11:00 AM)
Average38 °F77%29.92 "Hg
* Reported Feb 18 12:00 Noon — Mar 5 12:00 Noon, Zerbst/Anhalt, Weather by CustomWeather, © 2015

Note: Actual official high and low records may vary slightly from our data, if they occured in-between our weather recording intervals... More about our weather records

Advertising

Zerbst/Anhalt weather history for previous 24 hours

 ConditionsComfort  
Time TempWeatherWind HumidityBarometerVisibility
12:00 PM
Thu, Mar 5
43 °FOvercast.3 mph75%30.53 "Hg22 mi
11:00 AM42 °FOvercast.3 mph80%30.53 "Hg22 mi
9:00 AM38 °FOvercast.3 mph85%30.52 "Hg22 mi
8:00 AM36 °FPartly sunny.2 mph86%30.51 "Hg19 mi
7:00 AM36 °FOvercast.2 mph88%30.49 "Hg19 mi
6:00 AM37 °FOvercast.3 mph85%30.46 "Hg19 mi
5:00 AM37 °FLight freezing rain. Overcast.3 mph92%30.42 "Hg5 mi
3:00 AM38 °FDrizzle. Low clouds.3 mph94%30.34 "Hg2 mi
2:00 AM38 °FOvercast.3 mph91%30.31 "Hg14 mi
1:00 AM38 °FLight rain. Overcast.5 mph91%30.28 "Hg7 mi
12:00 AM38 °FLight freezing rain. Overcast.5 mph89%30.26 "Hg7 mi
11:00 PM
Wed, Mar 4
37 °FOvercast.5 mph89%30.24 "Hg12 mi
10:00 PM37 °FOvercast.3 mph88%30.23 "Hg14 mi
9:00 PM38 °FLight rain. Overcast.6 mph83%30.22 "Hg16 mi
8:00 PM38 °FOvercast.5 mph79%30.21 "Hg16 mi
7:00 PM39 °FPassing clouds.5 mph78%30.21 "Hg25 mi
6:00 PM41 °FOvercast.5 mph71%30.20 "Hg25 mi
5:00 PM42 °FPartly sunny.6 mph68%30.19 "Hg25 mi
4:00 PM43 °FOvercast.7 mph66%30.18 "Hg25 mi
3:00 PM42 °FPartly sunny.7 mph69%30.17 "Hg25 mi
2:00 PM42 °FOvercast.7 mph68%30.17 "Hg19 mi
1:00 PM43 °FOvercast.8 mph69%30.17 "Hg19 mi
Weather by CustomWeather, © 2015

See weather overviewHow to use our weather pages